This is the latest recevied weather packets stored in our database for station/object DL3MEB-6. If no packets are shown the sender has not sent any weather packets the latest 10 day(s).
| Time | Temp. | Humidity | Pressure | Rain* | Wind** | Luminosity | Snow |
|---|---|---|---|---|---|---|---|
| 1787701430 | 14.44° C | 96% | 1015.6 hPa | 0 mm | - | - | - |
| 1787700525 | 14.44° C | 96% | 1015.5 hPa | 0 mm | - | - | - |
| 1787699616 | 13.89° C | 95% | 1015.8 hPa | 0 mm | - | - | - |
| 1787698712 | 13.89° C | 94% | 1015.9 hPa | 0 mm | - | - | - |
| 1787697812 | 13.89° C | 93% | 1015.7 hPa | 0 mm | - | - | - |
| 1787696912 | 13.89° C | 93% | 1015.7 hPa | 0 mm | - | - | - |
| 1787696003 | 13.89° C | 93% | 1015.8 hPa | 0 mm | - | - | - |
| 1787695096 | 13.89° C | 93% | 1015.6 hPa | 0 mm | - | - | - |
| 1787694194 | 13.89° C | 92% | 1015.7 hPa | 0 mm | - | - | - |
| 1787693287 | 13.89° C | 92% | 1015.6 hPa | 0 mm | - | - | - |
| 1787692385 | 14.44° C | 91% | 1015.6 hPa | 0 mm | - | - | - |
| 1787691482 | 14.44° C | 91% | 1015.6 hPa | 0 mm | - | - | - |
| 1787690571 | 15° C | 91% | 1015.3 hPa | 0 mm | - | - | - |
| 1787689664 | 15° C | 91% | 1015.6 hPa | 0 mm | - | - | - |
| 1787688757 | 15° C | 90% | 1015.7 hPa | 0 mm | - | - | - |
| 1787687848 | 15° C | 90% | 1015.5 hPa | 0 mm | - | - | - |
| 1787686935 | 15.56° C | 90% | 1015.5 hPa | 0 mm | - | - | - |
| 1787686035 | 15.56° C | 89% | 1015.4 hPa | 0 mm | - | - | - |
| 1787685132 | 16.11° C | 89% | 1015.4 hPa | 0 mm | - | - | - |
| 1787684220 | 16.11° C | 88% | 1015.1 hPa | 0 mm | - | - | - |
| 1787683311 | 16.11° C | 88% | 1015.1 hPa | 0 mm | - | - | - |
| 1787680591 | 16.67° C | 86% | 1015 hPa | 0 mm | - | - | - |
| 1787679684 | 16.67° C | 85% | 1015.1 hPa | 0 mm | - | - | - |
| 1787678776 | 17.22° C | 84% | 1014.8 hPa | 0 mm | - | - | - |
| 1787677869 | 17.22° C | 84% | 1014.7 hPa | 0 mm | - | - | - |
* Rain latest hour (hover to see other rain measurements)
** Current wind speed in m/s (hover to see current wind gust speed)